sat.trackr.live / text

‹ back to catalog

STARLINK-3518

NORAD 51732 · 2022-016U

PAYLOAD ACTIVE UNKNOWN

§ Identity

Operator
Country
US
Launch date
2022-02-21
Launch site
AFETR
Launch vehicle
Mass (kg)
RCS (m²)

Purposes: comms

External: N2YO · Heavens-Above · Gunter

§ Orbital elements

Epoch: 2026-05-24T20:08:31.323552Z

Period
95.44 min
Inclination
53.2132°
Eccentricity
0.0001786
Mean motion
15.08835913 rev/d
Perigee alt
538.5 km
Apogee alt
541.0 km
Semi-major
6,917.9 km
B*
2.2387e-5
RAAN
337.2758°
Arg perigee
97.7745°
Mean anomaly
262.3450°
Rev number
23,620

§ Raw data

STARLINK-35181 51732U 22016U   26144.83925143  .00000068  00000+0  22387-4 0  99902 51732  53.2132 337.2758 0001786  97.7745 262.3450 15.08835913236200

JSON: /api/v1/satellites/51732 · /tle

For live sub-satellite position, see the globe view (requires WebGL).

§ Visibility from observer

Set your observer location to see the next 7 days of passes ≥ 10°. The values pass through the URL so the page stays shareable.

No JS? Fill the form by hand. The geolocation button needs JavaScript.